Погода в Горки

Погода в Горки : погода сейчас, прогноз погоды и архив. Всё, что Вы хотите узнать о погоде в Горки!

Хотите узнать прогноз погоды в Горки? Тогда Вам сюда: Погода в Горки

Поиск расширенной информации на нашем сайте:

Другие новости

Новости СМИ2

Главная страница сайта

Новости сайта

02.10.2013

Напоминаем, что на нашем новом сайте вы можете получить высокодетализированные прогнозы погоды по пунктам России, СНГ и мира (включающие важные для авиации метеовеличины, такие как направление и скорость ветра, видимость, явления погоды, количество и форма облачности, нижняя и верхняя граница облачности), а также ознакомиться с разнообразными материалами по авиационной метеорологии и подборкой полезных ссылок на эту тему.

Сайт Метеоцентр.Азия посвящён разработке технологий оптимизации авиаметеорологического обслуживания, включая проектирование и перспективное создание нескольких автоматизированных авиаметеорологических систем:
- система выпуска высокодетальных прогностических карт явлений погоды для нижнего воздушного пространства по России и ближнему зарубежью;
- система верификации прогнозов TAF (выпускаемых синоптиками официальных АМСГ РФ и ближнего зарубежья) и AUTOTAF (выпускаемых сайтом Метеоцентр.Азия) - выявление ошибок, онлайн-сопоставление с фактической погодой METAR, автоматическое внесение коррективов в прогнозы при резком отклонении фактической погоды от прогноза, подсчёт оправдываемости прогнозов по элементам и в целом;
- система обработки, анализа и отображения авиаметеорологической информации для применения провайдерами метеорологической информации.

Рекомендуем: Смотрите информацию подключение к рбт на сайте.

Погода в Горки - сегодня

Время (UTC), дата Ветер
(°,м/с) 
Видим.   Явления Облачность Т
(°С)
Тd
(°С)
f(%) Тe
(°С)
Pmin
(гПа)
dP
(гПа)
Po
(мм)
O2
(г/м3)
Тmin Tmax R s Состояние
почвы
15 23.03.17 260 (З) 20000 м    4/0 верхняя 
[Ci fib]
+9.9 -1.8 44 +9  1024.4  -0.6  750  292           
18 23.03.17 210 (ЮЗ) 20000 м    4/0 верхняя 
[Ci fib]
+4.6 -0.4 70 +5  1025.2  0.3  750  297    +10.7       
21 23.03.17 210 (ЮЗ) 18000 м    ясно 
+2 -0.9 81 +3  1025.4  750  300           
00 24.03.17 110 (В) 13000 м    ясно 
+1.5 -1.2 82 +2  1024.3  -1.2  749  300           
03 24.03.17 160 (Ю) 17000 м    8/0 средняя 
[Ac und]
+1 -2 80 +2  1022.5  -1.8  748  300           
06 24.03.17 040 (СВ) 18000 м    10/6 600 м средняя 
[Sc|Ac As]
+1.9 -0.8 82 +1  1020.8  -1.5  747  299  -0.4         
09 24.03.17 350 (С) 18000 м    9/4 600 м средняя 
[Sc|Ac As]
+6.4 -0.5 61 +5  1019.1  -1.3  746  294           
12 24.03.17 330 (СЗ) 7-10{16}  20000 м  в посл. час ливневой дождь  9/8 450 м кучево-дожд., средняя 
[Cb cap|Ac und]
+5.6 +2.5 80 +3  1018.4  -0.7  745  294           
18 24.03.17 300 (СЗ) 5{11}  20000 м    6/4 600 м средняя 
[Sc|Ac trans]
+3 -4.3 59 +1  1020  1.7  746  298    +9.8  0.0     
21 24.03.17 310 (СЗ) 4{11}  20000 м    ясно 
-0.2 -4.8 71 -3  1021.9  1.5  747  302           
00 25.03.17 310 (СЗ) 20000 м    ясно 
-1.3 -6.3 69 -4  1022.8  0.8  748  303           
03 25.03.17 300 (СЗ) 19000 м    ясно 
-2.6 -6.2 76 -5  1022.9  748  305           
06 25.03.17 310 (СЗ) 20000 м    6/0 верхняя 
[Ci fib]
-0.6 -5.3 70 -2  1022.2  -0.5  748  302  -3.6         
09 25.03.17 280 (З) 20000 м    9/3 600 м верхняя 
[Cu hum|Ci fib]
+2.4 -7 50 1020.5  -1.4  747  299           
12 25.03.17 250 (З) 19000 м    10/6 600 м верхняя 
[Sc|Cs]
+4.5 -7.3 42 +2  1017.4  -2.8  744  296           
15 25.03.17 240 (ЮЗ) 18000 м    10/4 600 м верхняя 
[Sc|Cs]
+2.7 -4.4 59 +1  1015.8  -1.7  743  297           
18 25.03.17 220 (ЮЗ) 5000 м  слаб. снег  10/0 средняя 
[Ac As]
+0.4 -1.8 85 +1  1015.7  -0.4  743  299    +5  0.0     
21 25.03.17 090 (В) 8000 м  слаб. снег  8/0 средняя 
[Ac As]
-0.6 -1.2 96 1016.4  0.6  743  300           
00 26.03.17 030 (СВ) 6000 м  слаб. снег  8/0 средняя 
[Ac As]
-0.7 -1.4 95 1017.5  1.1  744  301           
03 26.03.17 340 (С) 13000 м  {снег}  8/0 средняя 
[Ac und]
-2.9 -3.7 94 -4  1018.7  745  304      0.3   
06 26.03.17 320 (СЗ) 12000 м  {снег}  3/0 средняя 
[Ac trans]
-0.3 -2.3 86 -1  1019.7  1.2  746  301  -4    0.3  равномерный
сухой снег
100% 
09 26.03.17 320 (СЗ) 20000 м    6/5 600 м средняя 
[Sc|Ac cuf]
+3.8 -5 53 +2  1020.1  0.8  746  297           
12 26.03.17 310 (СЗ) 20000 м    8/6 600 м средняя 
[Sc|Ac und]
+4.4 -3.6 56 +2  1019.3  -0.8  746  296           
15 26.03.17 260 (З) 6{10}  20000 м    9/6 1020 м средняя, верхняя 
[Sc|Ac und|Ci fib]
+4 -2.4 63 +1  1016.8  -2.4  744  296           
18 26.03.17 270 (З) 5{10}  20000 м    10/8 720 м средняя 
[Sc|Ac As]
+3.1 -1 74 +1  1015.2  -1.7  743  296    +4.8       
Время (UTC), дата Ветер
(°,м/с) 
Видим.   Явления Облачность Т
(°С)
Тd
(°С)
f(%) Тe
(°С)
Pmin
(гПа)
dP
(гПа)
Po
(мм)
O2
(г/м3)
Тmin Tmax R s Состояние
почвы

Для получения пояснительной информации подведите курсор к названию столбца.

ПОГОДА в Горки - архив

Всё, что Вы хотите узнать о погоде в Горки - удобно и подробно!

Выберите нужную дату (начиная с 1 января 2015* года) и нажмите кнопку "Найти".
Будут отображены архивные сводки погоды по пункту Горки, начиная с указанной даты.


Отображать данные в формате CSV (для использования в таблицах Excel)


Внимание! Наш архив погоды предназначен исключительно для личного некоммерческого использования в познавательных целях. Если Вам необходимы официальные справки о состоянии погоды (для производственных, юридических, коммерческих и т.п. целей), обращайтесь в органы Росгидромета.

*Примечание: данная дата относится к архиву по метеостанциям СССР (Россия, СНГ, Балтия).
Архив по метеостанциям Зарубежной Европы и Азии (кроме Китая) хранится 10 дней, по другим регионам земного шара (Китай, Африка, Америка, Австралия, Океания) - 1 день.

Горки - район местоположения метеостанции


Название, широта, долгота, высота метеостанции:
Горки 54.3°ш. 30.9°д. 205 м над ур. моря [Беларусь]

Дополнительная информация

В oтличие oт бoльшинства пoгoдных сайтoв мы публикуем пoдрoбную метеoинфoрмацию в детальнoм прoфессиoнальнoм фoрмате.

Характеристики температуры и влажнoсти вoздуха измеряются на высoте 2 м в тени вдали oт зданий и деревьев.
Скoрoсть ветра измеряется на высoте 10 м (на урoвне рoста челoвека скoрoсть ветра ниже в 1.5-2 раза). Если метеoстанция нахoдится в гoрoде или в лесу, тo скoрoсть ветра занижена на 2-4 м/с пo сравнению с oткрытым местoм. Скoрoсть ветра над акватoриями крупных рек и oзёр, а также на вершинах хoлмoв на 2-5 м/с выше, чем в oбычных услoвиях.
Атмoсфернoе давление в разных тoчках местнoсти мoжет значительнo oтличаться oт давления на метеoстанции, в зависимoсти oт услoвий рельефа (при пoдъёме на 10 м давление пoнижается примернo на 1 мм рт.ст.).